Date,TemperatureHighF,TemperatureAvgF,TemperatureLowF,DewpointHighF,DewpointAvgF,DewpointLowF,HumidityHigh,HumidityAvg,HumidityLow,PressureMaxIn,PressureMinIn,WindSpeedMaxMPH,WindSpeedAvgMPH,GustSpeedMaxMPH,PrecipitationSumIn
2013-1-9,43,40,38,30,27,24,73,59,55,30.14,30.08,39,12,39,0.00
2013-1-10,44,34,24,27,20,15,73,57,42,30.58,30.13,31,6,31,0.00
2013-1-11,37,29,19,29,21,12,85,73,54,30.56,30.22,16,3,16,0.02
2013-1-12,43,36,33,38,32,29,89,85,82,30.23,30.17,9,2,9,0.12
2013-1-13,50,38,32,45,34,28,90,87,80,30.19,30.06,11,2,11,0.00
2013-1-14,51,40,30,47,32,20,90,73,50,30.33,29.97,28,5,28,0.04
2013-1-15,38,29,21,21,17,15,77,62,45,30.38,30.25,11,2,11,0.00
2013-1-16,32,28,25,27,21,15,82,75,63,30.26,29.87,14,1,14,0.00
2013-1-17,37,28,18,25,16,-2,75,60,40,30.15,29.88,29,6,29,0.05
2013-1-18,23,14,5,-1,-11,-20,44,31,23,30.38,30.06,24,5,24,0.00
2013-1-19,42,30,13,21,12,-2,57,47,35,30.29,29.89,24,7,24,0.01
2013-1-20,46,32,16,31,16,4,75,53,30,30.12,28.07,38,8,38,0.11
2013-1-21,24,15,8,8,1,-7,74,55,37,30.21,29.94,29,4,29,0.00
2013-1-22,19,10,2,7,-6,-16,73,51,24,30.18,29.93,21,6,21,0.00
2013-1-23,12,0,-6,-7,-21,-28,64,36,21,30.24,30.16,25,6,25,0.00
2013-1-24,15,1,-11,-16,-21,-25,56,35,20,30.36,30.18,33,6,33,0.00
2013-1-25,24,7,-3,-1,-17,-28,65,34,19,30.43,30.18,23,4,23,0.00
2013-1-26,23,8,-3,0,-10,-18,67,45,21,30.23,30.03,22,5,22,0.00
2013-1-27,29,13,2,-4,-9,-15,56,38,21,30.42,30.19,17,4,17,0.00
2013-1-28,21,16,6,14,4,-8,76,61,32,30.39,29.99,11,2,11,0.00
2013-1-29,34,26,20,26,19,14,82,76,66,30.15,29.99,11,2,11,0.00
2013-1-30,53,42,32,49,37,26,87,85,81,30.10,29.46,24,6,24,0.25
2013-1-31,54,35,19,49,26,9,88,69,49,29.61,29.06,37,12,37,0.80
2013-2-1,28,18,12,10,1,-6,66,47,27,30.03,29.60,34,9,34,0.00
2013-2-2,24,14,3,6,-3,-10,65,46,28,30.16,29.99,28,6,28,0.00
2013-2-3,33,16,6,9,3,-4,68,55,33,30.00,29.74,13,1,13,0.00
2013-2-4,24,16,8,8,1,-6,66,53,33,29.90,29.72,27,6,27,0.00
2013-2-5,35,18,8,10,2,-6,65,51,30,29.98,29.89,14,3,14,0.00
2013-2-6,36,21,14,17,6,-11,72,52,27,30.26,29.88,31,4,31,0.00
2013-2-7,30,17,4,0,-5,-14,61,39,21,30.46,30.25,10,3,11,0.00
2013-2-8,21,18,13,12,5,-6,69,59,33,30.38,29.76,28,8,28,0.00
2013-2-9,23,14,8,8,-4,-20,68,45,23,30.20,29.75,29,10,29,0.00
2013-2-10,50,18,-2,12,-5,-18,59,38,19,30.40,30.20,14,2,14,0.02
2013-2-11,37,27,12,31,15,-20,80,63,13,30.28,29.69,20,3,20,0.04
2013-2-12,34,31,27,23,20,14,69,66,57,29.91,29.67,49,10,49,0.15
2013-2-13,41,28,22,22,15,11,66,60,40,29.88,29.75,16,3,16,0.00
2013-2-14,45,27,12,20,13,2,66,55,32,29.99,29.74,13,2,13,0.00
2013-2-15,49,32,17,26,18,4,68,56,38,29.98,29.93,27,4,27,0.00
2013-2-16,38,26,19,19,12,-1,68,53,40,29.99,29.77,20,5,20,0.00
2013-2-17,20,14,5,0,-9,-15,44,35,24,29.77,29.54,37,12,37,0.00
2013-2-18,27,12,2,-4,-11,-16,47,35,21,30.14,29.73,31,9,31,0.00
2013-2-19,35,26,12,24,6,-13,72,45,13,30.13,29.61,17,3,17,0.04
2013-2-20,33,22,18,22,10,2,68,60,45,29.80,29.61,35,8,35,0.01
2013-2-21,29,19,14,10,4,-2,63,51,39,30.26,29.76,31,8,31,0.00
2013-2-22,46,27,12,19,12,2,66,53,32,30.37,30.25,21,2,21,0.00
2013-2-23,30,27,25,21,15,-21,73,62,11,30.28,29.93,13,1,13,0.00
2013-2-24,35,30,28,26,20,17,72,67,62,29.93,29.78,11,1,11,0.08
2013-2-25,35,27,19,23,14,-20,70,61,13,30.24,29.93,12,1,12,0.02
2013-2-26,41,29,22,30,19,11,69,64,57,30.32,30.14,14,1,14,0.04
2013-2-27,32,29,26,22,19,11,70,66,52,30.14,29.67,14,2,14,0.00
2013-2-28,48,31,24,33,20,-13,72,65,14,29.67,29.61,4,0,4,0.26
2013-3-1,41,32,27,27,20,16,71,63,50,29.75,29.60,24,2,24,0.14
2013-3-2,36,29,24,22,17,13,67,61,54,29.74,29.69,18,2,18,0.04
2013-3-3,36,25,20,21,14,11,67,63,54,29.69,29.65,17,1,17,0.02
2013-3-4,36,24,18,20,12,7,67,60,47,29.84,29.68,24,6,24,0.00
2013-3-5,46,30,22,27,17,11,70,60,42,30.09,29.84,17,2,17,0.00
2013-3-6,33,29,27,23,17,-20,71,62,11,30.14,30.05,26,8,26,0.04
2013-3-7,31,27,24,21,16,8,70,64,50,30.12,30.05,25,7,25,0.00
2013-3-8,38,30,24,23,16,-13,66,55,14,30.23,30.00,27,7,27,0.02
2013-3-9,55,37,24,20,13,6,65,41,18,30.34,30.20,14,1,14,0.00
2013-3-10,53,35,15,27,17,-28,68,50,11,30.38,30.26,17,2,17,0.00
2013-3-11,45,37,28,32,26,13,73,63,46,30.27,30.11,20,4,20,0.00
2013-3-12,46,41,34,36,20,-14,85,50,11,30.12,29.77,23,7,23,0.69
2013-3-13,47,34,27,29,20,10,73,57,33,29.85,29.80,21,3,21,0.00
2013-3-14,28,21,16,16,6,-2,64,52,39,29.85,29.78,29,5,29,0.00
2013-3-15,35,20,14,10,-2,-9,51,38,21,29.85,29.75,33,5,33,0.00
2013-3-18,40,28,16,15,-1,-15,72,32,20,30.38,30.15,21,3,21,0.00
2013-3-19,29,24,20,20,13,-20,71,63,13,30.15,29.73,20,1,20,0.00
2013-3-20,34,23,16,17,12,6,69,61,48,29.81,29.72,24,3,24,0.01
2013-3-21,42,22,6,11,3,-28,70,47,12,29.81,29.66,14,1,14,0.01
2013-3-22,38,24,17,22,10,2,66,56,43,29.77,29.65,24,3,24,0.00
2013-3-23,41,28,21,18,13,9,66,53,38,29.84,29.72,38,4,38,0.00
2013-3-24,44,30,23,21,15,12,63,53,41,29.87,29.80,19,3,19,0.00
2013-3-25,40,31,21,24,17,11,67,58,45,29.81,29.59,17,2,17,0.00
2013-3-26,48,32,23,23,17,10,68,55,29,29.86,29.63,21,1,21,0.00
2013-3-27,51,35,24,33,19,10,70,53,32,29.95,29.83,21,2,21,0.00
2013-3-28,54,36,29,31,24,18,69,61,40,30.09,29.93,11,0,11,0.00
2013-3-29,55,38,30,31,25,21,70,60,36,30.11,30.07,16,2,16,0.00
2013-3-30,54,38,24,26,16,-20,69,44,12,30.14,30.08,18,2,18,0.00
2013-3-31,51,36,22,30,11,-13,74,40,12,30.14,29.78,27,6,27,0.07
2013-4-1,54,34,25,40,9,-14,75,41,11,29.83,29.63,29,5,29,0.12
2013-4-2,34,25,20,17,7,-2,66,46,27,29.95,29.83,38,8,38,0.01
2013-4-3,40,27,20,12,6,-1,59,42,22,30.20,29.92,27,8,27,0.00
2013-4-4,50,34,16,17,10,2,67,40,21,30.30,30.03,23,3,23,0.00
2013-4-5,52,37,25,23,17,7,67,47,21,30.03,29.78,20,2,20,0.00
2013-4-6,44,30,22,20,4,-4,63,35,19,30.31,29.95,24,4,24,0.00
2013-4-7,51,35,22,35,17,-20,75,50,11,30.29,29.99,34,6,34,0.01
2013-4-8,64,45,27,35,26,-21,74,52,11,30.14,30.00,17,1,17,0.00
2013-4-9,59,46,34,44,29,-14,79,58,11,30.11,29.94,25,2,25,0.02
2013-4-10,59,46,36,49,24,-13,78,51,11,30.06,29.93,9,0,9,0.01
2013-4-11,43,38,31,35,27,-12,78,67,11,30.16,29.91,16,2,16,0.00
2013-4-12,32,28,27,24,16,-20,77,63,11,30.16,29.86,9,0,9,0.01
2013-4-13,48,36,27,35,27,16,79,69,56,29.99,29.84,14,0,14,0.00
2013-4-14,43,39,31,29,27,22,77,63,49,30.25,29.96,21,6,21,0.00
2013-4-15,42,42,42,27,27,27,55,55,55,30.39,30.24,11,11,11,0.00
2013-4-16,42,42,42,27,27,27,55,55,55,30.38,30.12,11,11,11,0.00
2013-4-17,42,42,42,27,27,27,55,55,55,30.39,30.15,11,11,11,0.00
2013-4-18,42,42,42,27,27,27,55,55,55,30.43,30.16,11,11,11,0.00
2013-4-19,42,42,42,27,27,27,55,55,55,30.17,29.71,11,11,11,0.00
2013-4-20,42,42,42,27,27,27,55,55,55,30.27,29.73,11,11,11,0.00
2013-4-21,42,42,42,27,27,27,55,55,55,30.65,30.26,11,11,11,0.00
2013-4-22,42,42,42,27,27,27,55,55,55,30.73,30.57,11,11,11,0.00
2013-4-23,42,42,42,27,27,27,55,55,55,30.57,30.18,11,11,11,0.00
2013-4-24,42,6,0,27,27,27,55,8,55,30.18,29.86,11,2,11,0.00
2013-4-25,0,0,0,27,27,27,0,0,100,30.32,29.85,0,0,0,0.00
2013-4-26,0,0,0,27,27,27,0,0,100,30.45,30.32,0,0,0,0.00
2013-4-27,0,0,0,27,27,27,0,0,100,30.45,30.33,0,0,0,0.00
2013-4-28,0,0,0,27,27,27,0,0,100,30.36,30.24,0,0,0,0.00
2013-4-29,68,10,0,46,28,27,56,9,41,30.37,30.15,17,0,17,0.00
2013-4-30,71,54,42,38,33,25,75,48,22,30.48,30.09,17,2,17,0.00
2013-5-1,73,53,33,38,29,19,80,47,14,30.58,30.17,19,1,19,0.00
2013-5-2,81,58,36,46,36,22,93,52,17,30.53,30.21,20,1,20,0.00
2013-5-3,68,51,34,42,36,27,87,59,36,30.63,30.29,17,2,17,0.00
2013-5-4,72,52,31,48,35,22,97,59,18,30.42,30.13,16,2,16,0.00
2013-5-5,71,50,29,37,30,22,87,52,17,30.32,30.03,14,1,14,0.00
2013-5-6,73,51,25,43,30,-21,93,54,11,30.33,29.96,15,1,15,0.00
2013-5-7,81,59,35,54,43,27,97,62,16,30.47,29.99,12,1,12,0.00
2013-5-8,72,56,42,59,52,41,97,87,64,30.26,29.99,20,1,20,0.00
2013-5-9,69,54,46,57,50,0,97,86,11,30.03,29.84,8,0,8,0.00
2013-5-10,77,61,44,61,48,1,93,67,13,30.12,29.80,13,1,13,0.00
2013-5-11,62,57,52,56,51,1,87,82,11,29.89,29.64,14,1,14,0.00
2013-5-12,60,50,39,49,41,26,89,72,40,29.72,29.40,21,2,21,0.00
2013-5-13,48,39,34,29,26,21,72,59,43,29.71,29.33,21,4,21,0.00
2013-5-14,56,39,31,32,26,22,79,60,36,29.85,29.47,9,0,9,0.00
2013-5-15,59,43,27,46,35,22,86,74,37,29.64,29.25,25,3,25,0.00
2013-5-16,76,61,44,47,36,18,86,43,15,29.67,29.20,30,5,30,0.00
2013-5-17,71,52,40,41,37,30,83,58,25,30.08,29.54,14,1,14,0.00
2013-5-18,71,55,38,47,39,32,87,59,31,29.99,29.81,17,1,17,0.00
2013-5-19,58,50,38,49,43,1,88,78,13,29.94,29.71,19,2,19,0.00
2013-5-20,81,62,49,61,52,8,88,74,14,29.98,29.56,24,1,24,0.00
2013-5-21,91,68,51,64,54,0,88,67,11,30.08,29.59,16,1,16,0.00
2013-5-22,62,54,49,57,50,44,87,85,81,29.75,29.60,1,0,1,0.00
2013-5-23,72,64,61,63,60,57,95,86,66,29.83,29.60,17,3,17,0.00
2013-5-24,61,52,41,58,48,38,93,86,74,29.64,29.43,10,1,10,0.00
2013-5-25,43,40,36,39,36,32,91,87,84,29.49,29.26,16,3,16,0.00
2013-5-26,51,42,35,40,36,32,90,77,63,29.62,29.20,10,2,10,0.00
2013-5-27,69,53,38,41,37,33,89,57,33,30.03,29.52,8,1,8,0.00
2013-5-28,72,58,36,50,42,33,93,58,37,30.01,29.75,14,2,14,0.00
2013-5-29,71,57,51,64,54,48,93,88,80,29.90,29.72,9,0,9,0.00
2013-5-30,87,69,53,64,59,51,94,73,45,30.18,29.71,18,1,18,0.00
2013-5-31,90,73,57,67,60,54,92,66,35,30.22,29.92,17,1,17,0.00
2013-6-1,88,75,59,66,61,55,88,63,43,30.09,29.88,21,2,21,0.00
2013-6-2,85,73,63,66,62,57,86,70,51,29.93,29.83,27,5,27,0.00
2013-6-3,70,61,50,59,51,36,88,72,53,29.85,29.50,18,2,18,0.00
2013-6-4,73,55,41,48,41,35,81,60,35,29.97,29.47,17,1,17,0.00
2013-6-5,75,56,41,48,41,31,90,62,25,30.04,29.76,15,0,15,0.00
2013-6-6,69,56,45,53,45,39,88,68,47,29.96,29.75,21,2,21,0.00
2013-6-7,51,49,47,48,46,45,92,89,87,29.75,29.42,11,0,11,0.00
2013-6-8,68,57,47,56,50,45,92,80,66,29.66,29.27,16,1,16,0.00
2013-6-9,80,63,53,56,51,48,84,67,44,30.11,29.62,17,2,17,0.00
2013-6-10,68,57,49,55,52,46,91,82,60,29.96,29.63,12,0,12,0.00
2013-6-11,60,56,52,55,52,49,92,87,80,29.63,29.28,14,0,14,0.00
2013-6-12,68,58,48,53,48,44,85,72,54,29.71,29.24,17,2,17,0.00
2013-6-13,56,50,44,51,47,42,90,87,82,29.76,29.46,8,0,8,0.00
2013-6-14,79,59,47,58,48,44,91,71,44,29.93,29.50,8,0,8,0.00
2013-6-15,79,62,48,49,45,39,86,58,33,30.16,29.75,15,1,15,0.00
2013-6-16,69,60,48,56,49,40,80,67,54,29.90,29.67,17,2,17,0.00
2013-6-17,77,65,55,60,55,50,87,71,51,29.98,29.71,19,2,19,0.00
2013-6-18,66,59,50,58,52,45,84,78,73,29.93,29.84,3,0,3,0.00
2013-6-19,76,58,45,49,43,32,83,59,29,30.27,29.77,11,0,11,0.00
2013-6-20,80,58,40,51,44,36,88,62,27,30.43,29.96,19,1,19,0.00
2013-6-21,86,66,49,56,47,37,89,57,23,30.56,30.11,18,1,18,0.00
2013-6-22,82,68,54,60,56,48,87,66,46,30.42,30.17,20,2,20,0.00
2013-6-23,87,74,61,66,60,54,82,62,46,30.45,30.17,21,3,21,0.01
2013-6-24,90,77,67,66,62,58,79,62,44,30.46,30.17,14,2,14,0.00
2013-6-25,85,75,62,64,62,56,84,64,49,30.31,29.91,28,2,28,0.06
2013-6-26,82,69,61,64,60,56,86,74,52,30.14,29.56,14,1,14,0.00
2013-6-27,84,68,59,66,60,55,87,76,55,30.06,29.47,13,1,13,0.00
2013-6-28,81,68,60,67,60,56,86,76,56,29.83,29.58,16,1,16,0.01
2013-6-29,88,70,62,66,59,53,85,68,48,30.06,29.63,27,5,27,0.00
2013-6-30,81,69,59,65,60,55,87,75,51,30.12,29.82,34,2,34,0.00
2013-7-1,75,68,63,65,63,60,92,84,69,30.25,30.05,13,1,13,0.00
2013-7-2,80,72,68,67,64,62,84,77,60,30.47,30.19,23,3,23,0.00
2013-7-3,83,73,69,65,63,61,83,70,57,30.61,30.26,20,3,20,0.00
2013-7-4,86,77,67,66,63,61,84,65,50,30.71,30.39,23,4,23,0.00
2013-7-5,88,77,67,67,64,60,83,63,47,30.56,30.34,19,3,19,0.00
2013-7-6,84,75,68,64,61,56,74,62,49,30.48,30.25,25,2,26,0.00
2013-7-7,86,74,66,66,61,55,78,63,50,30.29,30.17,15,1,15,0.00
2013-7-8,81,73,67,64,61,59,84,67,53,30.44,30.12,25,2,25,0.00
2013-7-9,78,70,67,65,62,61,86,78,64,30.37,30.17,12,0,12,0.00
2013-7-10,80,71,67,67,64,62,94,80,62,30.17,30.00,22,3,22,0.00
2013-7-11,80,71,64,65,59,52,85,68,52,30.22,29.95,14,1,14,0.00
2013-7-12,78,67,59,59,54,50,75,63,53,30.34,30.11,21,3,21,0.00
2013-7-13,70,65,59,62,56,50,82,72,60,30.41,30.28,9,0,9,0.00
2013-7-14,86,75,64,65,62,59,85,67,49,30.67,30.37,18,1,18,0.00
2013-7-15,88,77,66,64,62,58,85,63,45,30.55,30.35,18,1,18,0.00
2013-7-16,87,77,65,63,60,56,76,56,44,30.63,30.38,22,3,22,0.00
2013-7-17,90,77,63,65,61,56,80,59,43,30.60,30.34,18,2,18,0.00
2013-7-18,89,80,71,66,63,60,74,58,46,30.55,30.26,17,2,17,0.00
2013-7-19,89,78,69,73,64,60,92,63,48,30.32,29.77,31,7,31,0.13
2013-7-20,83,73,63,68,64,56,95,73,59,29.85,29.66,23,8,30,0.00
2013-7-21,80,69,59,62,59,55,96,72,46,29.93,29.73,12,5,17,0.00
2013-7-22,79,70,59,68,63,58,100,78,59,29.95,29.39,17,6,19,0.09
2013-7-23,77,68,64,72,65,62,100,90,66,29.77,29.52,14,4,21,0.97
2013-7-24,73,65,54,65,59,48,100,81,53,29.81,29.41,23,6,23,0.00
2013-7-25,68,58,48,57,50,44,86,75,60,29.86,29.65,14,5,15,0.00
2013-7-26,71,63,56,58,55,52,93,77,56,29.86,29.67,11,4,14,0.13
2013-7-27,81,66,50,63,56,50,100,74,42,29.96,29.58,14,5,18,0.00
2013-7-28,76,66,58,67,62,57,100,86,64,29.81,29.64,16,4,16,0.04
2013-7-29,79,68,61,66,60,52,100,76,50,30.05,29.71,16,5,17,0.00
2013-7-30,76,65,57,57,54,50,82,67,50,30.09,29.69,16,7,20,0.00
2013-7-31,77,65,53,58,55,52,97,72,45,30.05,29.76,11,4,16,0.00
2013-8-1,72,61,51,63,58,51,100,91,72,29.77,29.55,24,6,27,0.11
2013-8-2,76,67,59,62,57,51,100,74,45,29.84,29.49,19,6,21,0.01
2013-8-3,76,64,54,57,53,48,95,69,44,29.78,29.46,21,7,24,0.00
2013-8-4,71,62,55,54,51,47,83,68,49,29.66,29.44,26,8,26,0.12
2013-8-5,70,58,48,49,45,39,91,65,38,29.86,29.54,22,6,27,0.00
2013-8-6,74,60,43,54,49,43,100,71,46,30.03,29.61,13,4,98,0.00
2013-8-7,74,63,53,59,56,51,100,78,52,30.01,29.76,18,6,19,0.00
2013-8-8,78,69,62,68,65,59,100,87,66,30.11,29.71,19,7,19,0.05
2013-8-9,73,69,66,69,67,65,96,92,86,29.87,29.64,14,5,17,1.88
2013-8-10,74,66,58,64,55,47,89,68,46,29.93,29.62,20,9,25,0.00
2013-8-11,72,61,48,53,50,46,95,69,44,29.96,29.68,18,5,20,0.00
2013-8-12,77,64,52,58,54,50,96,71,48,29.98,29.60,18,4,18,0.22
2013-8-13,69,63,58,64,60,55,95,88,78,29.70,28.15,14,3,17,0.67
2013-8-14,67,58,52,59,49,46,90,74,61,29.73,28.12,24,10,35,0.01
2013-8-15,69,57,45,51,48,44,97,74,47,29.95,28.31,22,6,25,0.00
2013-8-16,70,56,48,55,49,46,96,81,50,29.93,28.40,14,3,17,0.00
2013-8-17,67,58,55,57,54,52,92,87,72,30.02,29.96,4,2,5,0.00
2013-8-18,76,63,52,59,55,50,96,77,48,30.02,29.77,8,2,9,0.00
2013-8-19,76,66,55,59,56,52,93,72,48,30.01,29.69,14,4,14,0.00
2013-8-20,80,69,55,60,56,50,85,65,46,30.17,29.63,14,5,17,0.00
2013-8-21,82,70,58,62,59,55,95,70,44,30.22,29.69,13,4,17,0.00
2013-8-22,82,71,57,65,61,55,97,73,42,30.02,29.59,14,5,23,0.01
2013-8-23,72,64,54,63,53,45,88,69,51,30.08,29.60,17,6,17,0.01
2013-8-24,79,60,47,52,48,43,93,67,30,30.21,29.62,11,3,11,0.00
2013-8-25,80,63,48,57,52,47,100,69,38,30.20,29.68,15,4,18,0.00
2013-8-26,72,65,58,65,60,54,100,84,68,29.91,29.65,19,7,23,0.19
2013-8-27,84,70,63,69,64,62,100,85,56,29.98,29.59,12,3,15,0.02
2013-8-28,83,70,60,69,64,60,100,82,57,30.01,29.70,20,3,20,0.01
2013-8-29,71,63,58,63,60,58,100,91,72,29.99,29.76,20,4,20,0.19
2013-8-30,81,69,57,65,61,57,100,78,50,29.96,29.70,11,5,19,0.01
2013-8-31,78,69,64,72,66,63,100,91,78,29.73,29.66,13,3,13,0.50
2013-9-1,80,70,63,70,66,61,100,88,68,29.82,29.63,14,3,18,0.12
2013-9-2,77,69,64,70,66,62,96,92,77,30.03,29.63,11,3,17,0.61
2013-9-3,69,64,59,63,58,53,96,81,64,30.05,29.81,16,5,19,0.01
2013-9-4,73,64,57,55,52,49,87,68,48,30.21,29.86,21,7,27,0.00
2013-9-5,65,58,45,56,46,33,86,66,33,30.20,29.84,18,6,26,0.00
2013-9-6,65,51,36,45,38,33,100,67,39,30.31,29.96,13,3,14,0.00
2013-9-7,73,61,50,53,46,34,85,59,24,29.98,29.77,14,4,14,0.00
2013-9-8,64,57,43,57,46,38,91,69,44,30.07,29.61,22,7,22,0.00
2013-9-9,65,52,36,48,41,34,100,71,38,30.19,29.91,16,4,17,0.00
2013-9-10,71,59,52,70,56,50,100,91,80,30.05,29.90,10,4,14,0.08
2013-9-11,88,79,67,71,69,66,97,73,53,30.34,29.87,21,7,24,0.00
2013-9-18,82,71,64,63,61,58,85,72,51,30.50,30.31,14,1,14,0.00
2013-9-19,86,76,66,64,62,61,85,65,47,30.60,30.30,8,1,8,0.00
2013-9-20,86,78,66,64,60,57,76,57,45,30.49,30.32,18,3,18,0.00
2013-9-21,89,76,64,64,60,57,80,60,44,30.57,30.34,17,2,17,0.00
2013-9-22,88,80,72,66,63,62,73,58,44,30.54,30.22,11,3,11,0.00
2013-9-23,87,79,70,66,63,60,73,59,47,30.48,30.11,25,5,25,0.00
2013-9-24,87,51,46,65,42,40,85,72,49,30.19,29.67,15,4,15,0.14
2013-9-25,69,54,41,51,44,38,91,71,50,29.95,29.58,11,4,16,0.00
2013-9-26,61,51,46,47,44,42,95,79,55,30.20,29.67,14,4,17,0.00
2013-9-27,58,50,44,49,46,42,97,86,69,30.07,29.74,11,2,11,0.00
2013-9-28,70,55,43,53,48,43,100,80,47,30.54,29.81,12,2,14,0.00
2013-9-29,68,54,42,54,47,42,100,81,53,30.42,29.72,13,3,14,0.00
2013-9-30,73,53,39,52,46,39,100,81,47,30.29,29.61,11,2,15,0.00
2013-10-1,74,60,45,56,50,44,100,74,48,30.27,29.59,14,4,19,0.00
2013-10-2,70,63,52,58,54,48,90,73,64,30.08,29.63,28,10,36,0.00
2013-10-3,74,59,47,50,45,32,92,64,24,30.26,29.73,11,4,12,0.00
2013-10-4,59,55,52,56,52,46,97,89,66,29.96,29.77,6,2,8,0.28
2013-10-5,63,57,54,58,55,52,100,92,75,29.97,29.79,6,1,7,0.05
2013-10-6,56,52,49,56,51,48,100,99,97,29.88,29.73,13,4,16,0.50
2013-10-7,67,56,50,63,54,45,100,94,80,29.73,29.55,36,8,42,0.58
2013-10-8,60,49,37,45,38,32,93,69,40,30.44,29.57,26,7,26,0.00
2013-10-9,60,44,33,42,36,31,100,77,43,30.53,29.86,13,3,17,0.00
2013-10-10,39,37,36,38,37,36,99,98,97,29.91,29.82,3,1,4,0.00
2013-11-25,85,74,64,64,62,59,85,68,49,30.92,30.62,14,1,14,0.00
2013-11-26,86,76,66,64,62,61,85,64,46,30.83,30.61,10,1,10,0.00
2013-11-27,86,77,66,63,60,57,76,56,45,30.88,30.64,18,4,18,0.00
2013-11-28,89,76,64,64,61,57,80,60,44,30.85,30.65,8,1,8,0.00
2013-11-29,87,80,72,66,63,62,73,58,46,30.80,30.54,12,3,12,0.00
2013-11-30,87,78,70,66,63,60,73,61,49,30.61,30.42,25,5,25,0.00
2013-12-1,37,32,30,27,25,24,79,74,67,29.99,29.76,0,0,5,0.20
2013-12-2,37,32,26,30,26,21,84,80,72,30.02,29.74,1,0,8,0.00
2013-12-3,45,32,24,38,26,19,88,76,66,30.01,29.76,17,2,17,0.00
2013-12-4,46,31,26,27,22,19,77,69,44,30.27,29.77,10,0,14,0.00
2013-12-5,52,39,29,48,34,20,86,81,71,30.11,29.84,13,1,16,0.04
2013-12-6,52,38,30,48,31,23,85,76,66,30.06,29.80,21,4,27,0.00
2013-12-7,31,27,22,24,16,9,78,62,51,30.33,29.85,30,9,34,0.00
2013-12-8,25,22,20,11,7,4,60,52,43,30.31,30.04,14,2,22,0.00
2013-12-9,34,26,18,27,18,9,80,74,60,30.17,29.75,22,3,31,0.19
2013-12-10,32,25,17,24,14,5,73,64,54,29.81,29.65,22,7,33,0.32
2013-12-11,24,20,16,10,6,-1,68,53,44,30.25,29.64,25,10,34,0.00
2013-12-12,18,12,8,7,-4,-14,66,48,26,30.45,29.68,19,4,24,0.00
2013-12-13,20,14,6,11,1,-11,66,55,41,30.05,29.53,17,4,24,0.00
2013-12-14,8,4,0,-2,-8,-14,65,55,38,30.15,29.76,11,0,12,0.00
2013-12-15,27,18,8,18,9,-2,73,68,61,29.75,29.30,30,8,34,0.17
2013-12-16,21,14,7,12,0,-9,69,51,43,29.98,29.36,24,11,38,0.00
2013-12-17,14,5,-7,5,-5,-17,69,61,49,29.99,29.71,0,0,7,0.00
2013-12-18,26,21,13,16,11,4,72,64,57,30.13,29.67,24,4,27,0.00
2013-12-19,40,30,20,24,17,12,71,57,43,30.22,29.77,21,6,25,0.00
2013-12-20,43,37,30,35,28,22,80,70,58,30.08,29.88,14,1,20,0.00
2013-12-21,55,46,35,44,38,27,82,74,63,29.95,29.75,15,3,17,0.00
2013-12-22,60,56,44,52,48,39,84,76,69,29.87,29.66,27,8,40,0.00
2013-12-23,52,41,30,46,36,21,85,80,68,30.15,29.83,23,2,23,0.00
2013-12-24,30,23,12,20,9,-2,67,55,33,30.10,29.81,19,7,34,0.00
2013-12-25,21,12,4,-1,-6,-12,57,44,25,30.43,29.78,21,5,27,0.00
2013-12-26,26,20,13,18,10,-2,74,63,48,30.06,29.79,17,3,24,0.00
2013-12-27,30,24,21,15,12,8,65,58,45,30.39,29.75,27,8,27,0.00
2013-12-28,41,31,19,25,20,11,75,63,48,29.95,29.65,29,5,33,0.00
2013-12-29,42,34,30,28,25,21,80,70,53,29.67,29.20,8,0,9,0.00
2013-12-30,34,22,5,28,11,-5,79,63,53,29.96,29.24,34,10,34,0.00
2013-12-31,19,11,1,8,-1,-8,69,58,42,30.01,29.53,21,4,30,0.00
2014-1-1,18,12,9,3,-1,-6,68,56,44,30.14,29.61,17,3,31,0.00
2014-1-2,11,6,0,3,-4,-12,70,63,56,29.85,29.28,23,6,27,0.00